When you browse on this site, cookies collect data to enhance your experience and personalize the content and advertising you see.
Visit our Privacy Policy to learn more. By continuing to use the site, you agree to this use of cookies and data.
  • In United Kingdom
  • List of Countries
  • For 7 days
  • Water Temperature
  • Satellite Maps
  • Weather Map
  • Weather Widgets
  • user-avatar
    Login

    Hourly Weather Bangor

    Today, 25 June, Tuesday

    Time Temperature Precipitation Wind Pressure Humidity
    00:00 +16°C° 0 mm 1 mps 747 mmHg 93%
    01:00 +16°C° 0 mm 1 mps 746 mmHg 93%
    02:00 +16°C° 0 mm 1 mps 746 mmHg 94%
    03:00 +16°C° 0 mm 1 mps 746 mmHg 94%
    04:00 +16°C° 0.4 mm 2 mps 746 mmHg 95%
    05:00 +16°C° 0.4 mm 2 mps 746 mmHg 95%
    06:00 +16°C° 0.4 mm 2 mps 746 mmHg 96%
    07:00 +16°C° 0.7 mm 3 mps 746 mmHg 96%
    08:00 +16°C° 0.7 mm 3 mps 746 mmHg 96%
    09:00 +16°C° 0.7 mm 3 mps 747 mmHg 97%
    10:00 +16°C° 0.2 mm 3 mps 747 mmHg 96%
    11:00 +17°C° 0.2 mm 3 mps 747 mmHg 96%
    12:00 +17°C° 0.2 mm 3 mps 747 mmHg 95%
    13:00 +17°C° 0.2 mm 3 mps 748 mmHg 95%
    14:00 +17°C° 0.2 mm 3 mps 748 mmHg 94%
    15:00 +17°C° 0.2 mm 4 mps 748 mmHg 94%
    16:00 +17°C° 0 mm 4 mps 748 mmHg 94%
    17:00 +17°C° 0 mm 4 mps 749 mmHg 94%
    18:00 +17°C° 0 mm 4 mps 749 mmHg 93%
    19:00 +17°C° 0 mm 3 mps 749 mmHg 94%
    20:00 +17°C° 0 mm 3 mps 750 mmHg 95%
    21:00 +16°C° 0 mm 3 mps 750 mmHg 96%
    22:00 +16°C° 0 mm 3 mps 751 mmHg 96%
    23:00 +15°C° 0 mm 4 mps 751 mmHg 96%

    Tomorrow, 26 June, Wednesday

    Time Temperature Precipitation Wind Pressure Humidity
    00:00 +14°C° 0 mm 4 mps 751 mmHg 96%
    01:00 +14°C° 0 mm 4 mps 751 mmHg 96%
    02:00 +14°C° 0 mm 4 mps 751 mmHg 95%
    03:00 +14°C° 0 mm 4 mps 752 mmHg 95%
    04:00 +14°C° 0 mm 4 mps 752 mmHg 95%
    05:00 +14°C° 0 mm 4 mps 752 mmHg 95%
    06:00 +14°C° 0 mm 5 mps 752 mmHg 95%
    07:00 +14°C° 0 mm 5 mps 753 mmHg 93%
    08:00 +15°C° 0 mm 5 mps 753 mmHg 92%
    09:00 +15°C° 0 mm 5 mps 754 mmHg 90%
    10:00 +16°C° 0 mm 5 mps 754 mmHg 89%
    11:00 +16°C° 0 mm 6 mps 754 mmHg 88%
    12:00 +16°C° 0 mm 6 mps 754 mmHg 87%
    13:00 +16°C° 0 mm 6 mps 754 mmHg 87%
    14:00 +16°C° 0 mm 7 mps 754 mmHg 87%
    15:00 +17°C° 0 mm 7 mps 753 mmHg 86%
    16:00 +16°C° 0 mm 7 mps 753 mmHg 87%
    17:00 +16°C° 0 mm 7 mps 753 mmHg 87%
    18:00 +16°C° 0 mm 7 mps 753 mmHg 87%
    19:00 +15°C° 0 mm 7 mps 753 mmHg 88%
    20:00 +14°C° 0 mm 7 mps 754 mmHg 90%
    21:00 +13°C° 0 mm 6 mps 754 mmHg 91%
    22:00 +11°C° 0 mm 6 mps 754 mmHg 92%
    23:00 +11°C° 0 mm 6 mps 754 mmHg 92%

    Day after tomorrow, 27 June, Thursday

    Time Temperature Precipitation Wind Pressure Humidity
    00:00 +10°C° 0 mm 6 mps 754 mmHg 92%
    01:00 +9°C° 0 mm 6 mps 754 mmHg 92%
    02:00 +9°C° 0 mm 5 mps 754 mmHg 92%
    03:00 +8°C° 0 mm 5 mps 754 mmHg 92%
    04:00 +9°C° 0 mm 5 mps 753 mmHg 90%
    05:00 +9°C° 0 mm 6 mps 753 mmHg 87%
    06:00 +9°C° 0 mm 6 mps 753 mmHg 84%
    07:00 +11°C° 0 mm 6 mps 754 mmHg 81%
    08:00 +12°C° 0 mm 7 mps 754 mmHg 78%
    09:00 +15°C° 0 mm 7 mps 754 mmHg 74%
    10:00 +16°C° 0 mm 7 mps 754 mmHg 73%
    11:00 +17°C° 0 mm 7 mps 754 mmHg 72%
    12:00 +18°C° 0 mm 7 mps 754 mmHg 70%
    13:00 +20°C° 0 mm 8 mps 753 mmHg 72%
    14:00 +20°C° 0 mm 8 mps 753 mmHg 73%
    15:00 +21°C° 0 mm 8 mps 753 mmHg 74%
    16:00 +21°C° 0 mm 8 mps 752 mmHg 77%
    17:00 +20°C° 0 mm 8 mps 752 mmHg 80%
    18:00 +20°C° 0 mm 8 mps 751 mmHg 83%
    19:00 +18°C° 0 mm 8 mps 751 mmHg 85%
    20:00 +16°C° 0 mm 7 mps 752 mmHg 87%
    21:00 +15°C° 0 mm 7 mps 752 mmHg 89%
    22:00 +14°C° 0 mm 6 mps 752 mmHg 89%
    23:00 +13°C° 0 mm 6 mps 752 mmHg 90%

    28 June, Friday

    Time Temperature Precipitation Wind Pressure Humidity
    00:00 +11°C° 0 mm 6 mps 751 mmHg 90%
    01:00 +10°C° 0 mm 5 mps 751 mmHg 91%
    02:00 +10°C° 0 mm 5 mps 751 mmHg 92%
    03:00 +9°C° 0 mm 5 mps 750 mmHg 93%
    04:00 +9°C° 0 mm 5 mps 750 mmHg 92%
    05:00 +10°C° 0 mm 5 mps 750 mmHg 90%
    06:00 +10°C° 0 mm 5 mps 750 mmHg 89%
    07:00 +13°C° 0 mm 5 mps 750 mmHg 86%
    08:00 +15°C° 0 mm 6 mps 750 mmHg 83%
    09:00 +16°C° 0 mm 6 mps 749 mmHg 80%
    10:00 +18°C° 0 mm 7 mps 749 mmHg 78%
    11:00 +20°C° 0 mm 7 mps 749 mmHg 76%
    12:00 +22°C° 0 mm 7 mps 749 mmHg 75%
    13:00 +22°C° 0 mm 7 mps 749 mmHg 75%
    14:00 +23°C° 0 mm 7 mps 748 mmHg 74%
    15:00 +23°C° 0 mm 7 mps 748 mmHg 74%
    16:00 +23°C° 0 mm 6 mps 748 mmHg 76%
    17:00 +23°C° 0 mm 6 mps 747 mmHg 78%
    18:00 +22°C° 0 mm 5 mps 747 mmHg 80%
    19:00 +21°C° 0 mm 4 mps 747 mmHg 84%
    20:00 +19°C° 0 mm 4 mps 747 mmHg 88%
    21:00 +17°C° 0 mm 3 mps 747 mmHg 92%
    22:00 +17°C° 0 mm 3 mps 746 mmHg 92%
    23:00 +16°C° 0 mm 2 mps 746 mmHg 93%

    29 June, Saturday

    Time Temperature Precipitation Wind Pressure Humidity
    00:00 +15°C° 0 mm 2 mps 746 mmHg 93%
    01:00 +15°C° 0 mm 1 mps 746 mmHg 93%
    02:00 +15°C° 0 mm 1 mps 745 mmHg 93%
    03:00 +15°C° 0 mm 1 mps 745 mmHg 92%
    04:00 +15°C° 0 mm 1 mps 745 mmHg 92%
    05:00 +16°C° 0 mm 1 mps 744 mmHg 91%
    06:00 +18°C° 0 mm 1 mps 744 mmHg 90%
    07:00 +18°C° 0 mm 1 mps 744 mmHg 89%
    08:00 +19°C° 0 mm 1 mps 744 mmHg 89%
    09:00 +20°C° 0 mm 1 mps 744 mmHg 88%
    10:00 +20°C° 0 mm 1 mps 744 mmHg 88%
    11:00 +19°C° 0 mm 2 mps 744 mmHg 89%
    12:00 +20°C° 0 mm 2 mps 744 mmHg 89%
    13:00 +20°C° 0 mm 3 mps 744 mmHg 84%
    14:00 +21°C° 0 mm 3 mps 744 mmHg 79%
    15:00 +22°C° 0 mm 4 mps 744 mmHg 73%
    16:00 +21°C° 0 mm 4 mps 744 mmHg 75%
    17:00 +20°C° 0 mm 5 mps 744 mmHg 76%
    18:00 +19°C° 0 mm 5 mps 743 mmHg 77%
    19:00 +17°C° 0 mm 4 mps 744 mmHg 83%
    20:00 +14°C° 0 mm 4 mps 744 mmHg 89%
    21:00 +13°C° 0 mm 3 mps 744 mmHg 94%
    22:00 +13°C° 0 mm 3 mps 744 mmHg 94%
    23:00 +13°C° 0 mm 4 mps 744 mmHg 94%

    30 June, Sunday

    Time Temperature Precipitation Wind Pressure Humidity
    00:00 +13°C° 0 mm 4 mps 744 mmHg 93%
    01:00 +13°C° 0 mm 4 mps 744 mmHg 92%
    02:00 +13°C° 0 mm 4 mps 744 mmHg 92%
    03:00 +13°C° 0 mm 4 mps 744 mmHg 91%
    04:00 +13°C° 0 mm 4 mps 744 mmHg 90%
    05:00 +14°C° 0 mm 4 mps 744 mmHg 90%
    06:00 +14°C° 0 mm 4 mps 744 mmHg 90%
    07:00 +15°C° 0 mm 5 mps 745 mmHg 87%
    08:00 +16°C° 0 mm 5 mps 745 mmHg 84%
    09:00 +17°C° 0 mm 5 mps 745 mmHg 81%
    10:00 +17°C° 0 mm 6 mps 745 mmHg 79%
    11:00 +19°C° 0 mm 6 mps 746 mmHg 76%
    12:00 +18°C° 0 mm 7 mps 746 mmHg 74%
    13:00 +18°C° 0 mm 7 mps 746 mmHg 74%
    14:00 +18°C° 0 mm 7 mps 746 mmHg 75%
    15:00 +18°C° 0 mm 7 mps 746 mmHg 76%
    16:00 +17°C° 0 mm 7 mps 746 mmHg 78%
    17:00 +16°C° 0 mm 6 mps 746 mmHg 79%
    18:00 +16°C° 0 mm 6 mps 746 mmHg 81%
    19:00 +14°C° 0 mm 5 mps 746 mmHg 85%
    20:00 +13°C° 0 mm 4 mps 746 mmHg 89%
    21:00 +11°C° 0 mm 3 mps 747 mmHg 93%
    22:00 +11°C° 0 mm 3 mps 747 mmHg 93%
    23:00 +10°C° 0 mm 2 mps 747 mmHg 93%
    Show more